Regional Weather Roundup
Issued by NWS

Home | Current Version | Previous Version | Text Only | Print | Product List | Glossary Off
Versions: 1 2 3 4 5 6 7 8 9 10 11 12 13 14 15 16 17 18 19 20 21 22 23 24 25 26 27 28 29 30 31 32 33 34 35 36 37 38 39 40 41 42 43 44 45 46 47 48 49 50

000
ASUS43 KLOT 220100
RWRIL

ILLINOIS REGIONAL WEATHER ROUNDUP
NATIONAL WEATHER SERVICE CHICAGO/ROMEOVILLE IL
700 PM CST FRI NOV 21 2014

NOTE: "FAIR" INDICATES FEW OR NO CLOUDS BELOW 12,000 FEET WITH NO
SIGNIFICANT WEATHER AND/OR OBSTRUCTIONS TO VISIBILITY.

* THESE STATIONS ARE NOT UNDER NWS QUALITY CONTROL. THEY ALSO MAY NOT
  REPORT WEATHER SUCH AS PRECIPITATION OR FOG.

ILZ001-002-007-009-015-016-024-220200-
NORTHWEST ILLINOIS

CITY           SKY/WX    TMP DP  RH WIND       PRES   REMARKS
MOLINE         CLOUDY    34  10  37 SE9       30.20F WCI  27
STERLING*      CLOUDY    32  10  40 S8        30.23F WCI  25
$$

ILZ003-004-008-010-011-017-018-220200-
NORTH CENTRAL ILLINOIS

CITY           SKY/WX    TMP DP  RH WIND       PRES   REMARKS
ROCKFORD       CLOUDY    29   5  36 S13       30.25F WCI  19
$$

ILZ005-006-012>014-019>023-220200-
NORTHEAST ILLINOIS

CITY           SKY/WX    TMP DP  RH WIND       PRES   REMARKS
CHICAGO-OHARE  PTCLDY    28   7  41 S10       30.28F WCI  19
CHICAGO-MIDWAY PTCLDY    31   9  39 S9        30.31F WCI  23
AURORA         PTCLDY    28   5  37 SE9       30.28F WCI  19
WAUKEGAN       CLEAR     29   4  34 S12       30.26F WCI  19
DUPAGE AIRPORT CLEAR     28   7  41 S10       30.28F WCI  19
WHEELING       CLEAR     30   5  34 S13       30.30F WCI  20
NORTHERLY ISL    N/A     30   9  41 S9          N/A  WCI  22
$$

LMZ740>746-220200-
SOUTHERN LAKE MICHIGAN

STATION/POSITION SKY/WX   TEMP    WIND        PRES    VSBY  WAVE
                          AIR SEA DIR/SP/G                  HT/PER
                          (F)     (DEG/KT/KT) (MB)    (MI)  (FT/S)
SOUTHERN BUOY              35 43  190/ 21/ 25 1026.9F         5/ 5
WAUKEGAN HARBOR            32     190/ 18/ 22   N/A
HARRISON CRIB              32     180/ 22/ 25   N/A
BURNHAM HARBOR             30     200/ 12/ 13   N/A
CALUMET HARBOR             30     160/ 10/ 15 1025.2F
MICHIGAN CITY              28     140/ 10/ 14   N/A
$$

ILZ025>027-034>036-040-047-049-050-058-095>099-220200-
WEST-CENTRAL ILLINOIS

CITY           SKY/WX    TMP DP  RH WIND       PRES   REMARKS
QUINCY         CLOUDY    36  23  59 SE13      30.20F WCI  27
$$

ILZ028>032-037-038-041>044-048-051>054-059>061-220200-
CENTRAL ILLINOIS

CITY           SKY/WX    TMP DP  RH WIND       PRES   REMARKS
DECATUR        CLOUDY    35  17  47 SE12      30.31F WCI  27
PEORIA         CLOUDY    37  14  38 S10       30.27F WCI  30
SPRINGFIELD    CLOUDY    38  17  42 SE13      30.29F WCI  30
TAYLORVILLE    NOT AVBL
$$

ILZ033-039-045-046-055>057-062-063-220200-
EAST-CENTRAL ILLINOIS

CITY           SKY/WX    TMP DP  RH WIND       PRES   REMARKS
CHAMPAIGN      CLOUDY    32  17  54 E14       30.30F WCI  22
DANVILLE*      PTCLDY    28  15  58 SE6       30.32S WCI  21
MATTOON        MOCLDY    33  15  47 SE15      30.32F WCI  23
$$

ILZ079-100>102-220200-
SOUTHWEST ILLINOIS

CITY           SKY/WX    TMP DP  RH WIND       PRES   REMARKS
ALTON          CLOUDY    39  18  41 SE12      30.29  WCI  32
CAHOKIA*       CLOUDY    41  24  51 SE8       30.29F
$$

ILZ064>066-069>071-074>076-080>082-084>086-088>090-092>094-220200-
SOUTH-CENTRAL ILLINOIS

CITY           SKY/WX    TMP DP  RH WIND       PRES   REMARKS
CARBONDALE     CLOUDY    44  24  45 SE6       30.33F
MT. VERNON     CLOUDY    39  21  48 E6        30.35S WCI  35
$$

ILZ067-068-072-073-078-083-087-091-220200-
SOUTHEAST ILLINOIS

CITY           SKY/WX    TMP DP  RH WIND       PRES   REMARKS
LAWRENCEVILLE  CLOUDY    35  20  54 SE6       30.38S WCI  30
$$

ABBREVIATIONS USED IN REMARKS
   TC - TEMPERATURE IN CELSIUS
  WCI - WIND CHILL INDEX
   HX - HEAT INDEX
  VSB - VISIBILITY
$$




USA.gov is the U.S. government's official web portal to all federal, state and local government web resources and services.